TimePST,TemperatureF,Dew PointF,Humidity,Sea Level PressureIn,VisibilityMPH,Wind Direction,Wind SpeedMPH,Gust SpeedMPH,PrecipitationIn,Events,Conditions,WindDirDegrees,DateUTC
4:00 AM,29,25,77,29.10,,West,13.8,,,,,270,2012-11-25 12:00:00
6:00 AM,30.2,30.2,100,30.32,20.0,Calm,Calm,-,N/A,,Partly Cloudy,0,2012-11-25 14:00:00
7:00 AM,32.0,32.0,100,30.33,20.0,South,4.6,-,N/A,,Mostly Cloudy,180,2012-11-25 15:00:00
8:00 AM,33.8,32.0,93,30.35,20.0,West,3.5,-,N/A,,Mostly Cloudy,260,2012-11-25 16:00:00
9:00 AM,35.6,33.8,93,30.37,20.0,Calm,Calm,-,N/A,,Mostly Cloudy,0,2012-11-25 17:00:00
10:00 AM,30,22,61,29.11,,West,18.4,,,,,260,2012-11-25 18:00:00
10:00 AM,37.4,35.6,93,30.38,20.0,North,2.3,-,N/A,,Mostly Cloudy,360,2012-11-25 18:00:00
11:00 AM,41.0,37.4,87,30.38,20.0,South,3.5,-,N/A,,Mostly Cloudy,170,2012-11-25 19:00:00
12:00 PM,42.8,37.4,81,30.38,20.0,Calm,Calm,-,N/A,,Mostly Cloudy,0,2012-11-25 20:00:00
1:00 PM,42.8,39.2,87,30.38,20.0,NNE,5.8,-,N/A,,Mostly Cloudy,20,2012-11-25 21:00:00
2:00 PM,42.8,39.2,87,30.37,20.0,NNE,3.5,-,N/A,,Mostly Cloudy,20,2012-11-25 22:00:00
3:00 PM,42.8,37.4,81,30.38,20.0,North,4.6,-,N/A,,Mostly Cloudy,360,2012-11-25 23:00:00
4:00 PM,27,19,61,29.24,,West,16.1,,,,,280,2012-11-26 00:00:00
4:00 PM,39.2,37.4,93,30.37,20.0,West,2.3,-,N/A,,Mostly Cloudy,260,2012-11-26 00:00:00
5:00 PM,37.4,35.6,93,30.36,30.0,Calm,Calm,-,N/A,,Mostly Cloudy,0,2012-11-26 01:00:00
6:00 PM,33.8,33.8,100,30.34,30.0,Calm,Calm,-,N/A,Fog,Shallow Fog,0,2012-11-26 02:00:00
7:00 PM,32.0,32.0,100,30.34,20.0,North,2.3,-,N/A,Fog,Patches of Fog,350,2012-11-26 03:00:00
8:00 PM,33.8,33.8,100,30.33,20.0,West,5.8,-,N/A,Fog,Shallow Fog,270,2012-11-26 04:00:00
9:00 PM,33.8,32.0,93,30.33,20.0,West,5.8,-,N/A,,Partly Cloudy,280,2012-11-26 05:00:00
10:00 PM,27,17,52,29.37,,West,17.3,,,,,280,2012-11-26 06:00:00